,,,PA_Meas_PMT16A,,PR_Meas_QMR101_102,,RH_Meas_QMH101,,SR_Meas_QMS101,,TA_Meas_QMH101,,GenWind,,GenWind,
date,time,status,PA,status,PR,status,RH,status,SR,status,TA,status,DirAvg,status,SpdAvg,
2011-09-30, 00:00:05,VALID,1010.105,VALID,0.0,VALID,104.0,VALID,0.0,VALID,23.519,VALID,51.0,VALID,0.112,
2011-09-30, 00:01:05,VALID,1010.083,VALID,0.0,VALID,104.0,VALID,0.0,VALID,23.478,VALID,51.0,VALID,0.0,
2011-09-30, 00:02:05,VALID,1010.058,VALID,0.0,VALID,104.0,VALID,0.0,VALID,23.478,VALID,51.0,VALID,0.171,
2011-09-30, 00:03:05,VALID,1010.087,VALID,0.0,VALID,104.0,VALID,0.0,VALID,23.48,VALID,51.0,VALID,0.041,
2011-09-30, 00:04:05,VALID,1010.069,VALID,0.0,VALID,104.0,VALID,0.0,VALID,23.439,VALID,51.0,VALID,0.0,
2011-09-30, 00:05:05,VALID,1010.082,VALID,0.0,VALID,104.0,VALID,0.0,VALID,23.441,VALID,51.0,VALID,0.253,
2011-09-30, 00:06:05,VALID,1010.065,VALID,0.0,VALID,104.0,VALID,0.0,VALID,23.419,VALID,51.0,VALID,0.275,
2011-09-30, 00:07:05,VALID,1010.063,VALID,0.0,VALID,104.0,VALID,0.112,VALID,23.421,VALID,51.0,VALID,0.308,
2011-09-30, 00:08:05,VALID,1010.052,VALID,0.0,VALID,104.0,VALID,0.112,VALID,23.419,VALID,51.0,VALID,0.275,
2011-09-30, 00:09:05,VALID,1010.072,VALID,0.0,VALID,104.0,VALID,0.0,VALID,23.441,VALID,51.0,VALID,0.147,
2011-09-30, 00:10:05,VALID,1010.057,VALID,0.0,VALID,104.0,VALID,0.0,VALID,23.421,VALID,51.0,VALID,0.161,
2011-09-30, 00:11:05,VALID,1010.064,VALID,0.0,VALID,104.0,VALID,0.0,VALID,23.38,VALID,51.0,VALID,0.117,
2011-09-30, 00:12:05,VALID,1010.094,VALID,0.0,VALID,104.0,VALID,0.112,VALID,23.38,VALID,51.0,VALID,0.127,
2011-09-30, 00:13:05,VALID,1010.091,VALID,0.0,VALID,104.0,VALID,0.0,VALID,23.382,VALID,51.0,VALID,0.216,
2011-09-30, 00:14:05,VALID,1010.083,VALID,0.0,VALID,104.0,VALID,0.0,VALID,23.361,VALID,51.0,VALID,0.123,
2011-09-30, 00:15:05,VALID,1010.066,VALID,0.0,VALID,104.0,VALID,0.0,VALID,23.382,VALID,51.0,VALID,0.256,
2011-09-30, 00:16:05,VALID,1010.074,VALID,0.0,VALID,104.0,VALID,0.0,VALID,23.363,VALID,51.0,VALID,0.255,
2011-09-30, 00:17:05,VALID,1010.032,VALID,0.0,VALID,104.0,VALID,0.0,VALID,23.343,VALID,51.0,VALID,0.27,
2011-09-30, 00:18:05,VALID,1010.059,VALID,0.0,VALID,104.0,VALID,0.0,VALID,23.363,VALID,51.0,VALID,0.229,
2011-09-30, 00:19:05,VALID,1010.039,VALID,0.0,VALID,104.0,VALID,0.112,VALID,23.363,VALID,51.0,VALID,0.232,
2011-09-30, 00:20:05,VALID,1010.015,VALID,0.0,VALID,104.0,VALID,0.0,VALID,23.343,VALID,51.0,VALID,0.036,
2011-09-30, 00:21:05,VALID,1010.027,VALID,0.0,VALID,104.0,VALID,0.0,VALID,23.324,VALID,51.0,VALID,0.241,
2011-09-30, 00:22:05,VALID,1010.021,VALID,0.0,VALID,104.0,VALID,0.112,VALID,23.322,VALID,51.0,VALID,0.054,
2011-09-30, 00:23:05,VALID,1009.996,VALID,0.0,VALID,104.0,VALID,0.0,VALID,23.324,VALID,51.0,VALID,0.038,
2011-09-30, 00:24:05,VALID,1010.023,VALID,0.0,VALID,104.0,VALID,0.0,VALID,23.304,VALID,51.0,VALID,0.0,
2011-09-30, 00:25:05,VALID,1009.996,VALID,0.0,VALID,104.0,VALID,0.0,VALID,23.283,VALID,51.0,VALID,0.0,
2011-09-30, 00:26:05,VALID,1009.971,VALID,0.0,VALID,104.0,VALID,0.0,VALID,23.283,VALID,51.0,VALID,0.0,
2011-09-30, 00:27:05,VALID,1009.981,VALID,0.0,VALID,104.0,VALID,0.0,VALID,23.283,VALID,51.0,VALID,0.0,
2011-09-30, 00:28:05,VALID,1009.942,VALID,0.0,VALID,104.0,VALID,0.112,VALID,23.285,VALID,51.0,VALID,0.266,
2011-09-30, 00:29:05,VALID,1009.951,VALID,0.0,VALID,104.0,VALID,0.112,VALID,23.285,VALID,51.0,VALID,0.225,
2011-09-30, 00:30:05,VALID,1009.948,VALID,0.0,VALID,104.0,VALID,0.112,VALID,23.225,VALID,51.0,VALID,0.302,
2011-09-30, 00:31:05,VALID,1009.946,VALID,0.0,VALID,104.0,VALID,0.112,VALID,23.186,VALID,51.0,VALID,0.266,
2011-09-30, 00:32:05,VALID,1009.933,VALID,0.0,VALID,104.0,VALID,0.112,VALID,23.166,VALID,51.0,VALID,0.202,
2011-09-30, 00:33:05,VALID,1009.946,VALID,0.0,VALID,104.0,VALID,0.0,VALID,23.187,VALID,51.0,VALID,0.096,
2011-09-30, 00:34:05,VALID,1009.918,VALID,0.0,VALID,104.0,VALID,0.0,VALID,23.168,VALID,51.0,VALID,0.0,
2011-09-30, 00:35:05,VALID,1009.869,VALID,0.0,VALID,104.0,VALID,0.0,VALID,23.127,VALID,51.0,VALID,0.0,
2011-09-30, 00:36:05,VALID,1009.889,VALID,0.0,VALID,104.0,VALID,0.112,VALID,23.127,VALID,51.0,VALID,0.0,
2011-09-30, 00:37:05,VALID,1009.869,VALID,0.0,VALID,104.0,VALID,0.0,VALID,23.129,VALID,51.0,VALID,0.0,
2011-09-30, 00:38:05,VALID,1009.886,VALID,0.0,VALID,104.0,VALID,0.0,VALID,23.129,VALID,51.0,VALID,0.0,
2011-09-30, 00:39:05,VALID,1009.872,VALID,0.0,VALID,104.0,VALID,0.0,VALID,23.129,VALID,51.0,VALID,0.0,
2011-09-30, 00:40:05,VALID,1009.864,VALID,0.0,VALID,104.0,VALID,0.0,VALID,23.109,VALID,51.0,VALID,0.0,
2011-09-30, 00:41:05,VALID,1009.853,VALID,0.0,VALID,104.0,VALID,0.0,VALID,23.09,VALID,51.0,VALID,0.0,
2011-09-30, 00:42:05,VALID,1009.845,VALID,0.0,VALID,104.0,VALID,0.0,VALID,23.051,VALID,51.0,VALID,0.0,
2011-09-30, 00:43:05,VALID,1009.835,VALID,0.0,VALID,104.0,VALID,0.112,VALID,23.049,VALID,51.0,VALID,0.0,
2011-09-30, 00:44:05,VALID,1009.821,VALID,0.0,VALID,104.0,VALID,0.0,VALID,23.032,VALID,51.0,VALID,0.0,
2011-09-30, 00:45:05,VALID,1009.828,VALID,0.0,VALID,104.0,VALID,0.112,VALID,22.991,VALID,51.0,VALID,0.0,
2011-09-30, 00:46:05,VALID,1009.818,VALID,0.0,VALID,104.0,VALID,0.0,VALID,22.991,VALID,51.0,VALID,0.0,
2011-09-30, 00:47:05,VALID,1009.817,VALID,0.0,VALID,104.0,VALID,0.112,VALID,23.012,VALID,51.0,VALID,0.0,
2011-09-30, 00:48:05,VALID,1009.817,VALID,0.0,VALID,104.0,VALID,0.112,VALID,23.012,VALID,51.0,VALID,0.0,
2011-09-30, 00:49:05,VALID,1009.789,VALID,0.0,VALID,104.0,VALID,0.112,VALID,23.01,VALID,51.0,VALID,0.02,
2011-09-30, 00:50:05,VALID,1009.754,VALID,0.0,VALID,104.0,VALID,0.0,VALID,23.012,VALID,51.0,VALID,0.0,
2011-09-30, 00:51:05,VALID,1009.766,VALID,0.0,VALID,104.0,VALID,0.0,VALID,22.993,VALID,51.0,VALID,0.0,
2011-09-30, 00:52:05,VALID,1009.752,VALID,0.0,VALID,104.0,VALID,0.0,VALID,22.954,VALID,51.0,VALID,0.0,
2011-09-30, 00:53:05,VALID,1009.744,VALID,0.0,VALID,104.0,VALID,0.0,VALID,22.954,VALID,51.0,VALID,0.0,
2011-09-30, 00:54:05,VALID,1009.723,VALID,0.0,VALID,104.0,VALID,0.0,VALID,22.954,VALID,51.0,VALID,0.306,
2011-09-30, 00:55:05,VALID,1009.74,VALID,0.0,VALID,104.0,VALID,0.0,VALID,22.934,VALID,51.0,VALID,0.192,
2011-09-30, 00:56:05,VALID,1009.749,VALID,0.0,VALID,104.0,VALID,0.0,VALID,22.954,VALID,51.0,VALID,0.212,
2011-09-30, 00:57:05,VALID,1009.704,VALID,0.0,VALID,104.0,VALID,0.0,VALID,22.954,VALID,51.0,VALID,0.1,
2011-09-30, 00:58:05,VALID,1009.694,VALID,0.0,VALID,104.0,VALID,0.0,VALID,22.932,VALID,51.0,VALID,0.23,
2011-09-30, 00:59:05,VALID,1009.67,VALID,0.0,VALID,104.0,VALID,0.0,VALID,22.954,VALID,51.0,VALID,0.252,
2011-09-30, 01:00:05,VALID,1009.637,VALID,0.0,VALID,104.0,VALID,0.0,VALID,22.913,VALID,51.0,VALID,0.0,
2011-09-30, 01:01:05,VALID,1009.61,VALID,0.0,VALID,104.0,VALID,0.0,VALID,22.915,VALID,51.0,VALID,0.0,
2011-09-30, 01:02:05,VALID,1009.629,VALID,0.0,VALID,104.0,VALID,0.0,VALID,22.874,VALID,51.0,VALID,0.0,
2011-09-30, 01:03:05,VALID,1009.631,VALID,0.0,VALID,104.0,VALID,0.0,VALID,22.876,VALID,51.0,VALID,0.133,
2011-09-30, 01:04:05,VALID,1009.591,VALID,0.0,VALID,104.0,VALID,0.0,VALID,22.876,VALID,51.0,VALID,0.422,
2011-09-30, 01:05:05,VALID,1009.596,VALID,0.0,VALID,104.0,VALID,0.0,VALID,22.876,VALID,51.0,VALID,0.188,
2011-09-30, 01:06:05,VALID,1009.566,VALID,0.0,VALID,104.0,VALID,0.0,VALID,22.856,VALID,51.0,VALID,0.0,
2011-09-30, 01:07:05,VALID,1009.553,VALID,0.0,VALID,104.0,VALID,0.0,VALID,22.816,VALID,51.0,VALID,0.0,
2011-09-30, 01:08:05,VALID,1009.528,VALID,0.0,VALID,104.0,VALID,0.0,VALID,22.816,VALID,51.0,VALID,0.0,
2011-09-30, 01:09:05,VALID,1009.531,VALID,0.0,VALID,104.0,VALID,0.0,VALID,22.837,VALID,51.0,VALID,0.0,
2011-09-30, 01:10:05,VALID,1009.512,VALID,0.0,VALID,104.0,VALID,0.0,VALID,22.817,VALID,51.0,VALID,0.0,
2011-09-30, 01:11:05,VALID,1009.525,VALID,0.0,VALID,104.0,VALID,0.0,VALID,22.817,VALID,51.0,VALID,0.0,
2011-09-30, 01:12:04,VALID,1009.554,VALID,0.0,VALID,104.0,VALID,0.0,VALID,22.817,VALID,51.0,VALID,0.0,
2011-09-30, 01:13:04,VALID,1009.538,VALID,0.0,VALID,104.0,VALID,0.0,VALID,22.798,VALID,51.0,VALID,0.0,
2011-09-30, 01:14:04,VALID,1009.549,VALID,0.0,VALID,104.0,VALID,0.0,VALID,22.798,VALID,51.0,VALID,0.0,
2011-09-30, 01:15:04,VALID,1009.561,VALID,0.0,VALID,104.0,VALID,0.0,VALID,22.798,VALID,51.0,VALID,0.068,
2011-09-30, 01:16:04,VALID,1009.558,VALID,0.0,VALID,104.0,VALID,0.0,VALID,22.817,VALID,51.0,VALID,0.0,
2011-09-30, 01:17:04,VALID,1009.534,VALID,0.0,VALID,104.0,VALID,0.0,VALID,22.817,VALID,51.0,VALID,0.0,
2011-09-30, 01:18:04,VALID,1009.538,VALID,0.0,VALID,104.0,VALID,0.0,VALID,22.777,VALID,51.0,VALID,0.0,
2011-09-30, 01:19:04,VALID,1009.556,VALID,0.0,VALID,104.0,VALID,0.0,VALID,22.778,VALID,51.0,VALID,0.0,
2011-09-30, 01:20:04,VALID,1009.561,VALID,0.0,VALID,104.0,VALID,0.0,VALID,22.759,VALID,51.0,VALID,0.202,
2011-09-30, 01:21:04,VALID,1009.525,VALID,0.0,VALID,104.0,VALID,0.0,VALID,22.72,VALID,51.0,VALID,0.32,
2011-09-30, 01:22:04,VALID,1009.545,VALID,0.0,VALID,104.0,VALID,0.0,VALID,22.72,VALID,51.0,VALID,0.293,
2011-09-30, 01:23:04,VALID,1009.552,VALID,0.0,VALID,104.0,VALID,0.0,VALID,22.72,VALID,51.0,VALID,0.185,
2011-09-30, 01:24:04,VALID,1009.521,VALID,0.0,VALID,104.0,VALID,0.0,VALID,22.7,VALID,51.0,VALID,0.0,
2011-09-30, 01:25:04,VALID,1009.529,VALID,0.0,VALID,104.0,VALID,0.0,VALID,22.681,VALID,51.0,VALID,0.124,
2011-09-30, 01:26:04,VALID,1009.511,VALID,0.0,VALID,104.0,VALID,0.0,VALID,22.642,VALID,51.0,VALID,0.0,
2011-09-30, 01:27:04,VALID,1009.505,VALID,0.0,VALID,104.0,VALID,0.0,VALID,22.622,VALID,51.0,VALID,0.0,
2011-09-30, 01:28:04,VALID,1009.514,VALID,0.0,VALID,104.0,VALID,0.0,VALID,22.622,VALID,51.0,VALID,0.082,
2011-09-30, 01:29:04,VALID,1009.52,VALID,0.0,VALID,104.0,VALID,0.0,VALID,22.622,VALID,51.0,VALID,0.0,
2011-09-30, 01:30:04,VALID,1009.491,VALID,0.0,VALID,104.0,VALID,0.0,VALID,22.603,VALID,51.0,VALID,0.0,
2011-09-30, 01:31:04,VALID,1009.511,VALID,0.0,VALID,104.0,VALID,0.0,VALID,22.622,VALID,51.0,VALID,0.0,
2011-09-30, 01:32:04,VALID,1009.536,VALID,0.0,VALID,104.0,VALID,0.0,VALID,22.64,VALID,51.0,VALID,0.0,
2011-09-30, 01:33:04,VALID,1009.546,VALID,0.0,VALID,104.0,VALID,0.0,VALID,22.681,VALID,51.0,VALID,0.0,
2011-09-30, 01:34:04,VALID,1009.532,VALID,0.0,VALID,104.0,VALID,0.0,VALID,22.681,VALID,51.0,VALID,0.0,
2011-09-30, 01:35:04,VALID,1009.536,VALID,0.0,VALID,104.0,VALID,0.0,VALID,22.661,VALID,51.0,VALID,0.0,
2011-09-30, 01:36:04,VALID,1009.525,VALID,0.0,VALID,104.0,VALID,0.0,VALID,22.661,VALID,51.0,VALID,0.0,
2011-09-30, 01:37:04,VALID,1009.552,VALID,0.0,VALID,104.0,VALID,0.0,VALID,22.681,VALID,51.0,VALID,0.0,
2011-09-30, 01:38:04,VALID,1009.561,VALID,0.0,VALID,104.0,VALID,0.0,VALID,22.681,VALID,51.0,VALID,0.0,
2011-09-30, 01:39:04,VALID,1009.543,VALID,0.0,VALID,104.0,VALID,0.0,VALID,22.7,VALID,51.0,VALID,0.0,
2011-09-30, 01:40:04,VALID,1009.547,VALID,0.0,VALID,104.0,VALID,0.0,VALID,22.681,VALID,51.0,VALID,0.0,
2011-09-30, 01:41:04,VALID,1009.538,VALID,0.0,VALID,104.0,VALID,0.0,VALID,22.661,VALID,51.0,VALID,0.0,
2011-09-30, 01:42:04,VALID,1009.545,VALID,0.0,VALID,104.0,VALID,0.0,VALID,22.622,VALID,51.0,VALID,0.0,
2011-09-30, 01:43:04,VALID,1009.523,VALID,0.0,VALID,104.0,VALID,0.0,VALID,22.622,VALID,51.0,VALID,0.0,
2011-09-30, 01:44:04,VALID,1009.519,VALID,0.0,VALID,104.0,VALID,0.0,VALID,22.642,VALID,51.0,VALID,0.0,
2011-09-30, 01:45:04,VALID,1009.523,VALID,0.0,VALID,104.0,VALID,0.0,VALID,22.642,VALID,51.0,VALID,0.0,
2011-09-30, 01:46:04,VALID,1009.505,VALID,0.0,VALID,104.0,VALID,0.0,VALID,22.661,VALID,51.0,VALID,0.0,
2011-09-30, 01:47:04,VALID,1009.478,VALID,0.0,VALID,104.0,VALID,0.0,VALID,22.642,VALID,51.0,VALID,0.0,
2011-09-30, 01:48:04,VALID,1009.436,VALID,0.0,VALID,104.0,VALID,0.0,VALID,22.661,VALID,51.0,VALID,0.0,
2011-09-30, 01:49:04,VALID,1009.454,VALID,0.0,VALID,104.0,VALID,0.0,VALID,22.64,VALID,51.0,VALID,0.0,
2011-09-30, 01:50:04,VALID,1009.428,VALID,0.0,VALID,104.0,VALID,0.0,VALID,22.642,VALID,51.0,VALID,0.0,
2011-09-30, 01:51:04,VALID,1009.407,VALID,0.0,VALID,104.0,VALID,0.0,VALID,22.642,VALID,51.0,VALID,0.0,
2011-09-30, 01:52:04,VALID,1009.382,VALID,0.0,VALID,104.0,VALID,0.0,VALID,22.661,VALID,51.0,VALID,0.0,
2011-09-30, 01:53:04,VALID,1009.396,VALID,0.0,VALID,104.0,VALID,0.0,VALID,22.642,VALID,51.0,VALID,0.0,
2011-09-30, 01:54:04,VALID,1009.407,VALID,0.0,VALID,104.0,VALID,0.0,VALID,22.642,VALID,51.0,VALID,0.0,
2011-09-30, 01:55:04,VALID,1009.411,VALID,0.0,VALID,104.0,VALID,0.0,VALID,22.603,VALID,51.0,VALID,0.0,
2011-09-30, 01:56:04,VALID,1009.39,VALID,0.0,VALID,104.0,VALID,0.0,VALID,22.603,VALID,51.0,VALID,0.0,
2011-09-30, 01:57:04,VALID,1009.403,VALID,0.0,VALID,104.0,VALID,0.0,VALID,22.603,VALID,51.0,VALID,0.0,
2011-09-30, 01:58:04,VALID,1009.347,VALID,0.0,VALID,104.0,VALID,0.112,VALID,22.603,VALID,51.0,VALID,0.0,
2011-09-30, 01:59:04,VALID,1009.348,VALID,0.0,VALID,104.0,VALID,0.112,VALID,22.584,VALID,51.0,VALID,0.0,
2011-09-30, 02:00:04,VALID,1009.342,VALID,0.0,VALID,104.0,VALID,0.0,VALID,22.564,VALID,51.0,VALID,0.0,
2011-09-30, 02:01:04,VALID,1009.343,VALID,0.0,VALID,104.0,VALID,0.0,VALID,22.545,VALID,51.0,VALID,0.0,
2011-09-30, 02:02:04,VALID,1009.306,VALID,0.0,VALID,104.0,VALID,0.0,VALID,22.525,VALID,51.0,VALID,0.0,
2011-09-30, 02:03:04,VALID,1009.3,VALID,0.0,VALID,104.0,VALID,0.112,VALID,22.525,VALID,51.0,VALID,0.0,
2011-09-30, 02:04:04,VALID,1009.292,VALID,0.0,VALID,104.0,VALID,0.0,VALID,22.545,VALID,51.0,VALID,0.0,
2011-09-30, 02:05:04,VALID,1009.286,VALID,0.0,VALID,104.0,VALID,0.0,VALID,22.486,VALID,51.0,VALID,0.0,
2011-09-30, 02:06:04,VALID,1009.266,VALID,0.0,VALID,104.0,VALID,0.0,VALID,22.506,VALID,51.0,VALID,0.0,
2011-09-30, 02:07:04,VALID,1009.247,VALID,0.0,VALID,104.0,VALID,0.0,VALID,22.506,VALID,51.0,VALID,0.0,
2011-09-30, 02:08:04,VALID,1009.252,VALID,0.0,VALID,104.0,VALID,0.0,VALID,22.486,VALID,51.0,VALID,0.0,
2011-09-30, 02:09:04,VALID,1009.273,VALID,0.0,VALID,104.0,VALID,0.0,VALID,22.467,VALID,51.0,VALID,0.0,
2011-09-30, 02:10:04,VALID,1009.263,VALID,0.0,VALID,104.0,VALID,0.0,VALID,22.467,VALID,51.0,VALID,0.0,
2011-09-30, 02:11:04,VALID,1009.26,VALID,0.0,VALID,104.0,VALID,0.112,VALID,22.445,VALID,51.0,VALID,0.0,
2011-09-30, 02:12:04,VALID,1009.274,VALID,0.0,VALID,104.0,VALID,0.0,VALID,22.447,VALID,51.0,VALID,0.0,
2011-09-30, 02:13:04,VALID,1009.258,VALID,0.0,VALID,104.0,VALID,0.0,VALID,22.467,VALID,51.0,VALID,0.0,
2011-09-30, 02:14:04,VALID,1009.261,VALID,0.0,VALID,104.0,VALID,0.0,VALID,22.504,VALID,51.0,VALID,0.189,
2011-09-30, 02:15:04,VALID,1009.275,VALID,0.0,VALID,104.0,VALID,0.112,VALID,22.525,VALID,51.0,VALID,0.073,
2011-09-30, 02:16:04,VALID,1009.241,VALID,0.0,VALID,104.0,VALID,0.0,VALID,22.523,VALID,51.0,VALID,0.001,
2011-09-30, 02:17:04,VALID,1009.253,VALID,0.0,VALID,104.0,VALID,0.0,VALID,22.545,VALID,51.0,VALID,0.0,
2011-09-30, 02:18:04,VALID,1009.24,VALID,0.0,VALID,104.0,VALID,0.0,VALID,22.584,VALID,51.0,VALID,0.326,
2011-09-30, 02:19:04,VALID,1009.25,VALID,0.0,VALID,104.0,VALID,0.112,VALID,22.564,VALID,51.0,VALID,0.261,
2011-09-30, 02:20:04,VALID,1009.264,VALID,0.0,VALID,104.0,VALID,0.112,VALID,22.545,VALID,51.0,VALID,0.087,
2011-09-30, 02:21:04,VALID,1009.223,VALID,0.0,VALID,104.0,VALID,0.0,VALID,22.504,VALID,51.0,VALID,0.153,
2011-09-30, 02:22:04,VALID,1009.239,VALID,0.0,VALID,104.0,VALID,0.0,VALID,22.486,VALID,51.0,VALID,0.363,
2011-09-30, 02:23:04,VALID,1009.238,VALID,0.0,VALID,104.0,VALID,0.112,VALID,22.467,VALID,51.0,VALID,0.43,
2011-09-30, 02:24:04,VALID,1009.233,VALID,0.0,VALID,104.0,VALID,0.0,VALID,22.447,VALID,51.0,VALID,0.391,
2011-09-30, 02:25:04,VALID,1009.21,VALID,0.0,VALID,104.0,VALID,0.0,VALID,22.426,VALID,51.0,VALID,0.268,
2011-09-30, 02:26:04,VALID,1009.196,VALID,0.0,VALID,104.0,VALID,0.0,VALID,22.426,VALID,51.0,VALID,0.171,
2011-09-30, 02:27:04,VALID,1009.201,VALID,0.0,VALID,104.0,VALID,0.0,VALID,22.428,VALID,51.0,VALID,0.0,
2011-09-30, 02:28:04,VALID,1009.165,VALID,0.0,VALID,104.0,VALID,0.0,VALID,22.408,VALID,51.0,VALID,0.015,
2011-09-30, 02:29:04,VALID,1009.165,VALID,0.0,VALID,104.0,VALID,0.0,VALID,22.369,VALID,51.0,VALID,0.107,
2011-09-30, 02:30:04,VALID,1009.159,VALID,0.0,VALID,104.0,VALID,0.0,VALID,22.369,VALID,51.0,VALID,0.102,
2011-09-30, 02:31:04,VALID,1009.158,VALID,0.0,VALID,104.0,VALID,0.112,VALID,22.369,VALID,51.0,VALID,0.0,
2011-09-30, 02:32:04,VALID,1009.148,VALID,0.0,VALID,104.0,VALID,0.0,VALID,22.35,VALID,51.0,VALID,0.0,
2011-09-30, 02:33:04,VALID,1009.144,VALID,0.0,VALID,104.0,VALID,0.112,VALID,22.369,VALID,51.0,VALID,0.0,
2011-09-30, 02:34:04,VALID,1009.145,VALID,0.0,VALID,104.0,VALID,0.112,VALID,22.369,VALID,51.0,VALID,0.0,
2011-09-30, 02:35:04,VALID,1009.128,VALID,0.0,VALID,104.0,VALID,0.0,VALID,22.369,VALID,51.0,VALID,0.0,
2011-09-30, 02:36:04,VALID,1009.136,VALID,0.0,VALID,104.0,VALID,0.0,VALID,22.389,VALID,51.0,VALID,0.0,
2011-09-30, 02:37:04,VALID,1009.122,VALID,0.0,VALID,104.0,VALID,0.112,VALID,22.389,VALID,51.0,VALID,0.0,
2011-09-30, 02:38:04,VALID,1009.106,VALID,0.0,VALID,104.0,VALID,0.112,VALID,22.368,VALID,51.0,VALID,0.0,
2011-09-30, 02:39:04,VALID,1009.114,VALID,0.0,VALID,104.0,VALID,0.0,VALID,22.389,VALID,51.0,VALID,0.099,
2011-09-30, 02:40:04,VALID,1009.096,VALID,0.0,VALID,104.0,VALID,0.112,VALID,22.387,VALID,51.0,VALID,0.114,
2011-09-30, 02:41:04,VALID,1009.051,VALID,0.0,VALID,104.0,VALID,0.112,VALID,22.408,VALID,51.0,VALID,0.109,
2011-09-30, 02:42:04,VALID,1009.083,VALID,0.0,VALID,104.0,VALID,0.112,VALID,22.408,VALID,51.0,VALID,0.164,
2011-09-30, 02:43:04,VALID,1009.057,VALID,0.0,VALID,104.0,VALID,0.112,VALID,22.407,VALID,51.0,VALID,0.233,
2011-09-30, 02:44:04,VALID,1009.059,VALID,0.0,VALID,104.0,VALID,0.112,VALID,22.428,VALID,51.0,VALID,0.166,
2011-09-30, 02:45:04,VALID,1009.029,VALID,0.0,VALID,104.0,VALID,0.112,VALID,22.387,VALID,51.0,VALID,0.0,
2011-09-30, 02:46:04,VALID,1009.025,VALID,0.0,VALID,104.0,VALID,0.112,VALID,22.368,VALID,51.0,VALID,0.0,
2011-09-30, 02:47:04,VALID,1008.996,VALID,0.0,VALID,104.0,VALID,0.0,VALID,22.348,VALID,51.0,VALID,0.001,
2011-09-30, 02:48:04,VALID,1009.012,VALID,0.0,VALID,104.0,VALID,0.112,VALID,22.35,VALID,51.0,VALID,0.378,
2011-09-30, 02:49:04,VALID,1008.987,VALID,0.0,VALID,104.0,VALID,0.0,VALID,22.329,VALID,51.0,VALID,0.282,
2011-09-30, 02:50:04,VALID,1008.964,VALID,0.0,VALID,104.0,VALID,0.112,VALID,22.29,VALID,51.0,VALID,0.245,
2011-09-30, 02:51:04,VALID,1008.976,VALID,0.0,VALID,104.0,VALID,0.112,VALID,22.27,VALID,51.0,VALID,0.126,
2011-09-30, 02:52:04,VALID,1008.987,VALID,0.0,VALID,104.0,VALID,0.112,VALID,22.27,VALID,51.0,VALID,0.002,
2011-09-30, 02:53:04,VALID,1008.936,VALID,0.0,VALID,104.0,VALID,0.112,VALID,22.29,VALID,51.0,VALID,0.0,
2011-09-30, 02:54:04,VALID,1008.902,VALID,0.0,VALID,104.0,VALID,0.112,VALID,22.29,VALID,51.0,VALID,0.0,
2011-09-30, 02:55:04,VALID,1008.886,VALID,0.0,VALID,104.0,VALID,0.112,VALID,22.291,VALID,51.0,VALID,0.0,
2011-09-30, 02:56:04,VALID,1008.874,VALID,0.0,VALID,104.0,VALID,0.0,VALID,22.291,VALID,51.0,VALID,0.0,
2011-09-30, 02:57:04,VALID,1008.87,VALID,0.0,VALID,104.0,VALID,0.112,VALID,22.272,VALID,51.0,VALID,0.0,
2011-09-30, 02:58:04,VALID,1008.862,VALID,0.0,VALID,104.0,VALID,0.112,VALID,22.252,VALID,51.0,VALID,0.0,
2011-09-30, 02:59:04,VALID,1008.866,VALID,0.0,VALID,104.0,VALID,0.112,VALID,22.252,VALID,51.0,VALID,0.0,
2011-09-30, 03:00:04,VALID,1008.888,VALID,0.0,VALID,104.0,VALID,0.112,VALID,22.272,VALID,51.0,VALID,0.0,
2011-09-30, 03:01:04,VALID,1008.919,VALID,0.0,VALID,104.0,VALID,0.112,VALID,22.291,VALID,51.0,VALID,0.0,
2011-09-30, 03:02:04,VALID,1008.908,VALID,0.0,VALID,104.0,VALID,0.0,VALID,22.291,VALID,51.0,VALID,0.254,
2011-09-30, 03:03:04,VALID,1008.92,VALID,0.0,VALID,104.0,VALID,0.224,VALID,22.291,VALID,51.0,VALID,0.357,
2011-09-30, 03:04:04,VALID,1008.948,VALID,0.0,VALID,104.0,VALID,0.112,VALID,22.33,VALID,51.0,VALID,0.248,
2011-09-30, 03:05:04,VALID,1008.954,VALID,0.0,VALID,104.0,VALID,0.112,VALID,22.29,VALID,51.0,VALID,0.074,
2011-09-30, 03:06:04,VALID,1008.974,VALID,0.0,VALID,104.0,VALID,0.0,VALID,22.252,VALID,51.0,VALID,0.155,
2011-09-30, 03:07:04,VALID,1008.978,VALID,0.0,VALID,104.0,VALID,0.112,VALID,22.194,VALID,51.0,VALID,0.12,
2011-09-30, 03:08:04,VALID,1008.972,VALID,0.0,VALID,104.0,VALID,0.112,VALID,22.114,VALID,51.0,VALID,0.0,
2011-09-30, 03:09:04,VALID,1008.983,VALID,0.0,VALID,104.0,VALID,0.112,VALID,22.116,VALID,51.0,VALID,0.0,
2011-09-30, 03:10:04,VALID,1009.013,VALID,0.0,VALID,104.0,VALID,0.0,VALID,22.097,VALID,51.0,VALID,0.0,
2011-09-30, 03:11:04,VALID,1009.018,VALID,0.0,VALID,104.0,VALID,0.112,VALID,22.077,VALID,51.0,VALID,0.0,
2011-09-30, 03:12:04,VALID,1009.027,VALID,0.0,VALID,104.0,VALID,0.112,VALID,22.056,VALID,51.0,VALID,0.0,
2011-09-30, 03:13:04,VALID,1009.014,VALID,0.0,VALID,104.0,VALID,0.112,VALID,22.036,VALID,51.0,VALID,0.0,
2011-09-30, 03:14:04,VALID,1009.022,VALID,0.0,VALID,104.0,VALID,0.112,VALID,22.036,VALID,51.0,VALID,0.0,
2011-09-30, 03:15:04,VALID,1009.028,VALID,0.0,VALID,104.0,VALID,0.0,VALID,22.036,VALID,51.0,VALID,0.0,
2011-09-30, 03:16:04,VALID,1009.037,VALID,0.0,VALID,104.0,VALID,0.112,VALID,22.036,VALID,51.0,VALID,0.0,
2011-09-30, 03:17:04,VALID,1009.004,VALID,0.0,VALID,104.0,VALID,0.112,VALID,22.075,VALID,51.0,VALID,0.0,
2011-09-30, 03:18:04,VALID,1009.075,VALID,0.0,VALID,104.0,VALID,0.112,VALID,22.077,VALID,51.0,VALID,0.007,
2011-09-30, 03:19:04,VALID,1009.049,VALID,0.0,VALID,104.0,VALID,0.112,VALID,22.077,VALID,51.0,VALID,0.232,
2011-09-30, 03:20:04,VALID,1009.079,VALID,0.0,VALID,104.0,VALID,0.112,VALID,22.056,VALID,51.0,VALID,0.132,
2011-09-30, 03:21:04,VALID,1009.079,VALID,0.0,VALID,104.0,VALID,0.112,VALID,22.116,VALID,51.0,VALID,0.174,
2011-09-30, 03:22:04,VALID,1009.081,VALID,0.0,VALID,104.0,VALID,0.112,VALID,22.097,VALID,51.0,VALID,0.0,
2011-09-30, 03:23:04,VALID,1009.125,VALID,0.0,VALID,104.0,VALID,0.112,VALID,22.077,VALID,51.0,VALID,0.0,
2011-09-30, 03:24:04,VALID,1009.118,VALID,0.0,VALID,104.0,VALID,0.112,VALID,22.036,VALID,51.0,VALID,0.0,
2011-09-30, 03:25:04,VALID,1009.095,VALID,0.0,VALID,104.0,VALID,0.0,VALID,22.036,VALID,51.0,VALID,0.0,
2011-09-30, 03:26:04,VALID,1009.089,VALID,0.0,VALID,104.0,VALID,0.112,VALID,22.017,VALID,51.0,VALID,0.0,
2011-09-30, 03:27:04,VALID,1009.055,VALID,0.0,VALID,104.0,VALID,0.112,VALID,22.038,VALID,51.0,VALID,0.0,
2011-09-30, 03:28:04,VALID,1009.029,VALID,0.0,VALID,104.0,VALID,0.112,VALID,22.017,VALID,51.0,VALID,0.0,
2011-09-30, 03:29:04,VALID,1009.016,VALID,0.0,VALID,104.0,VALID,0.0,VALID,22.058,VALID,51.0,VALID,0.0,
2011-09-30, 03:30:04,VALID,1009.025,VALID,0.0,VALID,104.0,VALID,0.112,VALID,22.058,VALID,51.0,VALID,0.0,
2011-09-30, 03:31:04,VALID,1008.99,VALID,0.0,VALID,104.0,VALID,0.112,VALID,21.998,VALID,51.0,VALID,0.0,
2011-09-30, 03:32:04,VALID,1008.971,VALID,0.0,VALID,104.0,VALID,0.112,VALID,22.019,VALID,51.0,VALID,0.0,
2011-09-30, 03:33:04,VALID,1008.956,VALID,0.0,VALID,104.0,VALID,0.112,VALID,21.999,VALID,51.0,VALID,0.0,
2011-09-30, 03:34:04,VALID,1008.979,VALID,0.0,VALID,104.0,VALID,0.112,VALID,21.999,VALID,51.0,VALID,0.0,
2011-09-30, 03:35:04,VALID,1008.993,VALID,0.0,VALID,104.0,VALID,0.112,VALID,21.978,VALID,51.0,VALID,0.0,
2011-09-30, 03:36:04,VALID,1008.996,VALID,0.0,VALID,104.0,VALID,0.112,VALID,21.978,VALID,51.0,VALID,0.0,
2011-09-30, 03:37:04,VALID,1009.011,VALID,0.0,VALID,104.0,VALID,0.112,VALID,21.999,VALID,51.0,VALID,0.0,
2011-09-30, 03:38:04,VALID,1009.017,VALID,0.0,VALID,104.0,VALID,0.112,VALID,21.959,VALID,51.0,VALID,0.0,
2011-09-30, 03:39:04,VALID,1009.021,VALID,0.0,VALID,104.0,VALID,0.112,VALID,21.939,VALID,51.0,VALID,0.0,
2011-09-30, 03:40:04,VALID,1009.051,VALID,0.0,VALID,104.0,VALID,0.112,VALID,21.939,VALID,51.0,VALID,0.0,
2011-09-30, 03:41:04,VALID,1009.067,VALID,0.0,VALID,104.0,VALID,0.112,VALID,21.98,VALID,51.0,VALID,0.0,
2011-09-30, 03:42:04,VALID,1009.111,VALID,0.0,VALID,104.0,VALID,0.112,VALID,21.98,VALID,51.0,VALID,0.0,
2011-09-30, 03:43:04,VALID,1009.146,VALID,0.0,VALID,104.0,VALID,0.112,VALID,21.959,VALID,51.0,VALID,0.008,
2011-09-30, 03:44:04,VALID,1009.164,VALID,0.0,VALID,104.0,VALID,0.112,VALID,21.978,VALID,51.0,VALID,0.155,
2011-09-30, 03:45:04,VALID,1009.193,VALID,0.0,VALID,104.0,VALID,0.112,VALID,21.978,VALID,51.0,VALID,0.102,